Location: Palau
(42.3086°N, 3.1507°E)
Time: 23:09:45
(UTC+00:00)

GP-B - Pass Details

Date: 26 May 2020
Orbit: 631 x 635 km, 89.8° (Epoch: 05 July)

Event Time Altitude Azimuth Distance (km) Brightness Sun altitude
Rises 02:45:07 0° 351° (N) 2,942 7.1 -14.1°
Reaches altitude 10° 02:47:33 10° 340° (NNW) 2,028 6.1 -13.7°
Maximum altitude 02:51:24 30° 280° (W) 1,154 4.1 -13.3°
Enters shadow 02:53:37 19° 235° (SW) 1,496 4.4 -13.0°
